Regional Weather Roundup
Issued by NWS

Home | Current Version | Previous Version | Graphics & Text | Print | Product List | Glossary On
Versions: 1 2 3 4 5 6 7 8 9 10 11 12 13 14 15 16 17 18 19 20 21 22 23 24 25 26 27 28 29 30 31 32 33 34 35 36 37 38 39 40 41 42 43 44 45 46 47 48 49 50
000
ASUS43 KLMK 231810
RWRKY
KENTUCKY REGIONAL WEATHER ROUNDUP
NATIONAL WEATHER SERVICE LOUISVILLE KY
200 PM EDT WED APR 23 2014

NOTE "FAIR" INDICATES FEW OR NO CLOUDS BELOW 12,000 FEET
WITH NO SIGNIFICANT WEATHER AND/OR OBSTRUCTIONS TO VISIBILITY.

KYZ001>023-026-027-061>063-070>075-231900-
WESTERN AND SOUTH CENTRAL KENTUCKY

CITY           SKY/WX    TMP DP  RH WIND       PRES   REMARKS
PADUCAH        FAIR      66  37  34 E6        30.07F
HENDERSON      FAIR      57  34  41 N8        30.09F
OWENSBORO      SUNNY     59  30  33 VRB6      30.09F
HOPKINSVILLE   SUNNY     63  37  37 NE9       30.06F
BOWLING GREEN  SUNNY     63  25  23 NE5G16    30.06F
GLASGOW        SUNNY     61  30  31 CALM      30.07F
$$

KYZ024-025-028>034-038-045-046-053-231900-
NORTH CENTRAL KENTUCKY

CITY           SKY/WX    TMP DP  RH WIND       PRES   REMARKS
LOUISVILLE/SDF MOSUNNY   57  31  37 VRB5      30.08F
LOUISVILLE/LOU SUNNY     60  30  32 NW6       30.09F
FORT KNOX      MOSUNNY   57  29  34 VRB2      30.07F
$$

KYZ035>037-039>044-047>052-055>060-089>105-231900-
NORTHEAST KENTUCKY

CITY           SKY/WX    TMP DP  RH WIND       PRES   REMARKS
LEXINGTON      SUNNY     56  33  42 CALM      30.08F
COVINGTON      SUNNY     56  31  38 VRB3      30.08F
FRANKFORT      SUNNY     57  30  35 MISG      30.07F
$$

KYZ054-064>069-076>088-106>120-231900-
SOUTHEAST KENTUCKY

CITY           SKY/WX    TMP DP  RH WIND       PRES   REMARKS
JACKSON        SUNNY     58  27  30 VRB5      30.05S
LONDON         SUNNY     61  29  29 NW3       30.04F
SOMERSET       NOT AVBL
MIDDLESBORO    NOT AVBL
MONTICELLO     CLEAR     62  30  30 VRB7      30.07F
$$




USA.gov is the U.S. government's official web portal to all federal, state and local government web resources and services.